| time (UTC) | temp F | wind direction | speed knots | gust knots | rain 1hr in | rain 24hr in | rain mn in | humidity % | barometer mb |
| 20260507235010 | 70 | 351 | 12.2 | 26.9 | 0.00 | 0.00 | 0.00 | 28 | 1010.3 |
| 20260507234538 | 70 | 5 | 13.9 | 26.9 | 0.00 | 0.00 | 0.00 | 27 | 1010.4 |
| 20260507234013 | 69 | 351 | 13.9 | 18.2 | 0.00 | 0.00 | 0.00 | 28 | 1010.4 |
| 20260507233520 | 69 | 345 | 11.3 | 18.2 | 0.00 | 0.00 | 0.00 | 28 | 1010.6 |
| 20260507233037 | 69 | 324 | 13.9 | 18.2 | 0.00 | 0.00 | 0.00 | 27 | 1010.2 |
| 20260507232514 | 69 | 334 | 13.0 | 19.1 | 0.00 | 0.00 | 0.00 | 28 | 1010.5 |
| 20260507232008 | 69 | 331 | 13.9 | 20.9 | 0.00 | 0.00 | 0.00 | 28 | 1010.5 |
| 20260507231546 | 69 | 340 | 15.6 | 20.9 | 0.00 | 0.00 | 0.00 | 27 | 1010.5 |
| 20260507231014 | 70 | 344 | 11.3 | 17.4 | 0.00 | 0.00 | 0.00 | 26 | 1010.5 |
| 20260507230514 | 70 | 339 | 9.6 | 21.7 | 0.00 | 0.00 | 0.00 | 27 | 1010.6 |
| 20260507230055 | 70 | 344 | 14.8 | 22.6 | 0.00 | 0.00 | 0.00 | 28 | 1010.6 |
| 20260507225507 | 69 | 360 | 14.8 | 20.0 | 0.00 | 0.00 | 0.00 | 27 | 1010.4 |
| 20260507225011 | 69 | 352 | 13.0 | 20.9 | 0.00 | 0.00 | 0.00 | 27 | 1010.6 |
| 20260507224539 | 69 | 309 | 13.0 | 20.9 | 0.00 | 0.00 | 0.00 | 27 | 1010.7 |
| 20260507224010 | 70 | 329 | 13.9 | 20.0 | 0.00 | 0.00 | 0.00 | 28 | 1010.6 |
| 20260507223516 | 70 | 319 | 13.9 | 22.6 | 0.00 | 0.00 | 0.00 | 28 | 1010.7 |
| 20260507223040 | 70 | 340 | 15.6 | 21.7 | 0.00 | 0.00 | 0.00 | 27 | 1010.6 |
| 20260507222512 | 69 | 350 | 13.9 | 20.0 | 0.00 | 0.00 | 0.00 | 26 | 1010.6 |
| 20260507222011 | 70 | 338 | 13.9 | 20.0 | 0.00 | 0.00 | 0.00 | 27 | 1010.8 |
| 20260507221551 | 70 | 325 | 12.2 | 20.9 | 0.00 | 0.00 | 0.00 | 28 | 1010.7 |
| 20260507221014 | 70 | 10 | 15.6 | 20.0 | 0.00 | 0.00 | 0.00 | 27 | 1010.8 |
| 20260507220513 | 70 | 348 | 14.8 | 20.0 | 0.00 | 0.00 | 0.00 | 28 | 1010.7 |
| 20260507220037 | 70 | 348 | 13.0 | 20.0 | 0.00 | 0.00 | 0.00 | 28 | 1010.7 |
| 20260507215514 | 69 | 339 | 15.6 | 19.1 | 0.00 | 0.00 | 0.00 | 27 | 1010.7 |
| 20260507215016 | 69 | 334 | 13.0 | 20.9 | 0.00 | 0.00 | 0.00 | 27 | 1010.8 |
| 20260507214540 | 69 | 350 | 13.0 | 20.9 | 0.00 | 0.00 | 0.00 | 27 | 1010.8 |
| 20260507214007 | 69 | 328 | 8.7 | 14.8 | 0.00 | 0.00 | 0.00 | 29 | 1011.0 |
| 20260507213513 | 69 | 333 | 8.7 | 15.6 | 0.00 | 0.00 | 0.00 | 31 | 1010.9 |
| 20260507213037 | 69 | 282 | 9.6 | 18.2 | 0.00 | 0.00 | 0.00 | 30 | 1010.9 |
| 20260507212514 | 68 | 306 | 11.3 | 18.2 | 0.00 | 0.00 | 0.00 | 30 | 1011.1 |
| 20260507212016 | 68 | 295 | 9.6 | 15.6 | 0.00 | 0.00 | 0.00 | 30 | 1011.3 |
| 20260507211542 | 68 | 302 | 10.4 | 18.2 | 0.00 | 0.00 | 0.00 | 33 | 1011.3 |
| 20260507211011 | 67 | 322 | 10.4 | 18.2 | 0.00 | 0.00 | 0.00 | 35 | 1011.5 |
| 20260507210515 | 66 | 300 | 12.2 | 24.3 | 0.00 | 0.00 | 0.00 | 33 | 1011.4 |
| 20260507210038 | 66 | 316 | 18.2 | 26.9 | 0.00 | 0.00 | 0.00 | 33 | 1011.5 |
| 20260507205514 | 67 | 323 | 19.1 | 26.9 | 0.00 | 0.00 | 0.00 | 33 | 1011.5 |
| 20260507205018 | 68 | 341 | 13.0 | 17.4 | 0.00 | 0.00 | 0.00 | 30 | 1011.5 |
| 20260507204537 | 69 | 324 | 13.0 | 17.4 | 0.00 | 0.00 | 0.00 | 31 | 1011.5 |
| 20260507204014 | 69 | 5 | 11.3 | 18.2 | 0.00 | 0.00 | 0.00 | 30 | 1011.3 |
| 20260507203514 | 69 | 336 | 13.0 | 18.2 | 0.00 | 0.00 | 0.00 | 32 | 1011.4 |
| 20260507203047 | 67 | 338 | 13.0 | 18.2 | 0.00 | 0.00 | 0.00 | 32 | 1011.4 |
| 20260507202511 | 68 | 338 | 13.9 | 20.0 | 0.00 | 0.00 | 0.00 | 31 | 1011.5 |
| 20260507202013 | 67 | 321 | 15.6 | 20.9 | 0.00 | 0.00 | 0.00 | 31 | 1011.3 |
| 20260507201541 | 67 | 14 | 13.9 | 20.9 | 0.00 | 0.00 | 0.00 | 30 | 1011.3 |
| 20260507201015 | 67 | 344 | 13.9 | 22.6 | 0.00 | 0.00 | 0.00 | 30 | 1011.3 |
| 20260507200512 | 68 | 329 | 13.9 | 22.6 | 0.00 | 0.00 | 0.00 | 30 | 1011.0 |
| 20260507200048 | 67 | 343 | 11.3 | 17.4 | 0.00 | 0.00 | 0.00 | 30 | 1011.1 |
| 20260507195514 | 67 | 346 | 13.0 | 18.2 | 0.00 | 0.00 | 0.00 | 30 | 1011.2 |
| 20260507195015 | 68 | 330 | 13.0 | 20.9 | 0.00 | 0.00 | 0.00 | 30 | 1011.3 |
| 20260507194542 | 68 | 331 | 13.9 | 18.2 | 0.00 | 0.00 | 0.00 | 30 | 1011.3 |
| 20260507194011 | 68 | 319 | 13.9 | 17.4 | 0.00 | 0.00 | 0.00 | 30 | 1011.4 |
| 20260507193515 | 68 | 317 | 13.0 | 17.4 | 0.00 | 0.00 | 0.00 | 29 | 1011.3 |
| 20260507193055 | 69 | 331 | 10.4 | 20.0 | 0.00 | 0.00 | 0.00 | 28 | 1011.3 |
| 20260507192511 | 69 | 323 | 13.0 | 20.0 | 0.00 | 0.00 | 0.00 | 29 | 1011.2 |
| 20260507192018 | 70 | 312 | 13.0 | 19.1 | 0.00 | 0.00 | 0.00 | 31 | 1011.2 |
| 20260507191543 | 69 | 334 | 12.2 | 24.3 | 0.00 | 0.00 | 0.00 | 30 | 1011.0 |
| 20260507191014 | 68 | 334 | 14.8 | 24.3 | 0.00 | 0.00 | 0.00 | 31 | 1011.2 |
| 20260507190517 | 69 | 321 | 10.4 | 21.7 | 0.00 | 0.00 | 0.00 | 32 | 1011.1 |
| 20260507190048 | 69 | 27 | 13.9 | 21.7 | 0.00 | 0.00 | 0.00 | 29 | 1011.4 |
| 20260507185519 | 68 | 345 | 14.8 | 20.9 | 0.00 | 0.00 | 0.00 | 31 | 1011.5 |
| 20260507185016 | 68 | 360 | 12.2 | 18.2 | 0.00 | 0.00 | 0.00 | 33 | 1011.4 |
| 20260507184523 | 67 | 325 | 14.8 | 18.2 | 0.00 | 0.00 | 0.00 | 33 | 1011.4 |
| 20260507184016 | 68 | 336 | 11.3 | 19.1 | 0.00 | 0.00 | 0.00 | 35 | 1011.3 |
| 20260507183514 | 67 | 322 | 12.2 | 21.7 | 0.00 | 0.00 | 0.00 | 34 | 1011.4 |
| 20260507183051 | 68 | 342 | 11.3 | 21.7 | 0.00 | 0.00 | 0.00 | 33 | 1011.5 |
| 20260507182512 | 68 | 336 | 10.4 | 18.2 | 0.00 | 0.00 | 0.00 | 36 | 1011.6 |
| 20260507182017 | 67 | 9 | 13.0 | 18.2 | 0.00 | 0.00 | 0.00 | 34 | 1011.6 |
| 20260507181550 | 68 | 319 | 8.7 | 16.5 | 0.00 | 0.00 | 0.00 | 36 | 1011.8 |
| 20260507181016 | 67 | 310 | 12.2 | 20.0 | 0.00 | 0.00 | 0.00 | 35 | 1011.9 |
| 20260507180517 | 67 | 329 | 12.2 | 18.2 | 0.00 | 0.00 | 0.00 | 34 | 1011.8 |
| 20260507180052 | 68 | 336 | 11.3 | 19.1 | 0.00 | 0.00 | 0.00 | 35 | 1011.9 |
| 20260507175516 | 67 | 321 | 13.9 | 19.1 | 0.00 | 0.00 | 0.00 | 36 | 1011.9 |
| 20260507175012 | 67 | 327 | 13.9 | 19.1 | 0.00 | 0.00 | 0.00 | 37 | 1012.0 |
| 20260507174604 | 66 | 14 | 13.9 | 19.1 | 0.00 | 0.00 | 0.00 | 38 | 1012.2 |
| 20260507174015 | 66 | 352 | 11.3 | 18.2 | 0.00 | 0.00 | 0.00 | 39 | 1012.1 |
| 20260507173515 | 66 | 16 | 11.3 | 19.1 | 0.00 | 0.00 | 0.00 | 38 | 1012.2 |
| 20260507173100 | 66 | 344 | 13.0 | 21.7 | 0.00 | 0.00 | 0.00 | 38 | 1012.2 |
| 20260507172517 | 65 | 342 | 13.9 | 21.7 | 0.00 | 0.00 | 0.00 | 40 | 1012.0 |
| 20260507172014 | 65 | 360 | 13.0 | 19.1 | 0.00 | 0.00 | 0.00 | 38 | 1012.3 |
| 20260507171529 | 66 | 338 | 12.2 | 19.1 | 0.00 | 0.00 | 0.00 | 38 | 1012.4 |
| 20260507171018 | 65 | 348 | 13.0 | 19.1 | 0.00 | 0.00 | 0.00 | 39 | 1012.3 |
| 20260507170517 | 65 | 349 | 12.2 | 24.3 | 0.00 | 0.00 | 0.00 | 39 | 1012.4 |
| 20260507170055 | 65 | 352 | 12.2 | 24.3 | 0.00 | 0.00 | 0.00 | 39 | 1012.4 |
| 20260507165514 | 66 | 352 | 11.3 | 18.2 | 0.00 | 0.00 | 0.00 | 39 | 1012.4 |
| 20260507165015 | 65 | 340 | 10.4 | 18.2 | 0.00 | 0.00 | 0.00 | 40 | 1012.3 |
| 20260507164602 | 65 | 317 | 11.3 | 16.5 | 0.00 | 0.00 | 0.00 | 40 | 1012.3 |
| 20260507164010 | 65 | 352 | 9.6 | 15.6 | 0.00 | 0.00 | 0.00 | 39 | 1012.4 |
| 20260507163510 | 64 | 344 | 9.6 | 17.4 | 0.00 | 0.00 | 0.00 | 40 | 1012.4 |
| 20260507163047 | 64 | 333 | 10.4 | 17.4 | 0.00 | 0.00 | 0.00 | 40 | 1012.3 |
| 20260507162517 | 64 | 323 | 11.3 | 17.4 | 0.00 | 0.00 | 0.00 | 39 | 1012.4 |
| 20260507162019 | 63 | 335 | 5.2 | 13.9 | 0.00 | 0.00 | 0.00 | 40 | 1012.2 |
| 20260507161546 | 63 | 352 | 7.8 | 11.3 | 0.00 | 0.00 | 0.00 | 41 | 1012.2 |
| 20260507161010 | 62 | 262 | 5.2 | 8.7 | 0.00 | 0.00 | 0.00 | 39 | 1012.3 |
| 20260507160516 | 62 | 31 | 0.9 | 5.2 | 0.00 | 0.00 | 0.00 | 39 | 1012.4 |
| 20260507160052 | 61 | 279 | 1.7 | 4.3 | 0.00 | 0.00 | 0.00 | 40 | 1012.4 |
| 20260507155517 | 60 | 238 | 0.9 | 3.5 | 0.00 | 0.00 | 0.00 | 39 | 1012.4 |
| 20260507155015 | 60 | 292 | 1.7 | 3.5 | 0.00 | 0.00 | 0.00 | 41 | 1012.7 |
| 20260507154552 | 59 | 352 | 1.7 | 3.5 | 0.00 | 0.00 | 0.00 | 39 | 1012.8 |
| 20260507154016 | 59 | 225 | 0.9 | 3.5 | 0.00 | 0.00 | 0.00 | 39 | 1012.6 |
| 20260507153517 | 58 | 241 | 0.9 | 3.5 | 0.00 | 0.00 | 0.00 | 39 | 1012.7 |
| 20260507153057 | 58 | 328 | 0.9 | 2.6 | 0.00 | 0.00 | 0.00 | 40 | 1012.7 |
| 20260507152514 | 57 | 328 | 0.0 | 4.3 | 0.00 | 0.00 | 0.00 | 39 | 1012.7 |
| 20260507152017 | 56 | 328 | 0.9 | 4.3 | 0.00 | 0.00 | 0.00 | 37 | 1012.8 |
| 20260507151539 | 56 | 348 | 0.9 | 4.3 | 0.00 | 0.00 | 0.00 | 37 | 1012.6 |
| 20260507151018 | 55 | 304 | 0.9 | 6.1 | 0.00 | 0.00 | 0.00 | 35 | 1012.7 |
| 20260507150515 | 55 | 315 | 2.6 | 4.3 | 0.00 | 0.00 | 0.00 | 37 | 1012.7 |
| 20260507150028 | 54 | 280 | 0.9 | 4.3 | 0.00 | 0.00 | 0.00 | 36 | 1012.3 |
| 20260507145517 | 53 | 290 | 0.9 | 4.3 | 0.00 | 0.00 | 0.00 | 35 | 1012.4 |
| 20260507145018 | 53 | 267 | 0.9 | 2.6 | 0.00 | 0.00 | 0.00 | 38 | 1012.6 |
| 20260507144556 | 52 | 302 | 0.0 | 1.7 | 0.00 | 0.00 | 0.00 | 37 | 1012.5 |
| 20260507144017 | 51 | 302 | 0.0 | 4.3 | 0.00 | 0.00 | 0.00 | 38 | 1012.4 |
| 20260507143525 | 50 | 302 | 0.0 | 6.1 | 0.00 | 0.00 | 0.00 | 38 | 1012.4 |
| 20260507143103 | 49 | 283 | 2.6 | 7.0 | 0.00 | 0.00 | 0.00 | 40 | 1012.3 |
| 20260507142519 | 49 | 263 | 3.5 | 7.0 | 0.00 | 0.00 | 0.00 | 42 | 1012.2 |
| 20260507142014 | 48 | 246 | 4.3 | 6.1 | 0.00 | 0.00 | 0.00 | 43 | 1012.3 |
| 20260507141557 | 47 | 276 | 3.5 | 6.1 | 0.00 | 0.00 | 0.00 | 46 | 1012.3 |
| 20260507141015 | 46 | 263 | 4.3 | 6.1 | 0.00 | 0.00 | 0.00 | 45 | 1012.3 |
| 20260507140517 | 46 | 280 | 3.5 | 6.1 | 0.00 | 0.00 | 0.00 | 48 | 1012.6 |
| 20260507140049 | 45 | 264 | 1.7 | 6.1 | 0.00 | 0.00 | 0.00 | 51 | 1012.7 |
| 20260507135515 | 45 | 304 | 2.6 | 6.1 | 0.00 | 0.00 | 0.00 | 50 | 1012.7 |
| 20260507135015 | 45 | 323 | 2.6 | 4.3 | 0.00 | 0.00 | 0.00 | 52 | 1012.7 |
| 20260507134558 | 44 | 256 | 1.7 | 4.3 | 0.00 | 0.00 | 0.00 | 54 | 1012.4 |
| 20260507134017 | 44 | 246 | 1.7 | 3.5 | 0.00 | 0.00 | 0.00 | 53 | 1012.5 |
| 20260507133518 | 44 | 267 | 2.6 | 5.2 | 0.00 | 0.00 | 0.00 | 53 | 1012.1 |
| 20260507133059 | 44 | 271 | 2.6 | 4.3 | 0.00 | 0.00 | 0.00 | 55 | 1012.3 |
| 20260507132517 | 43 | 352 | 0.9 | 1.7 | 0.00 | 0.00 | 0.00 | 56 | 1012.0 |
| 20260507132019 | 43 | 352 | 0.0 | 2.6 | 0.00 | 0.00 | 0.00 | 55 | 1012.3 |
| 20260507131607 | 42 | 352 | 1.7 | 2.6 | 0.00 | 0.00 | 0.00 | 55 | 1012.4 |
| 20260507131016 | 42 | 352 | 1.7 | 3.5 | 0.00 | 0.00 | 0.00 | 55 | 1012.5 |
| 20260507130516 | 42 | 352 | 2.6 | 3.5 | 0.00 | 0.00 | 0.00 | 55 | 1012.4 |
| 20260507130054 | 41 | 352 | 2.6 | 4.3 | 0.00 | 0.00 | 0.00 | 55 | 1012.3 |
| 20260507125520 | 41 | 352 | 1.7 | 4.3 | 0.00 | 0.00 | 0.00 | 54 | 1012.2 |
| 20260507125017 | 41 | 352 | 3.5 | 4.3 | 0.00 | 0.00 | 0.00 | 55 | 1012.2 |
| 20260507124556 | 40 | 352 | 2.6 | 3.5 | 0.00 | 0.00 | 0.00 | 55 | 1012.2 |
| 20260507124016 | 41 | 352 | 2.6 | 3.5 | 0.00 | 0.00 | 0.00 | 54 | 1012.1 |
| 20260507123514 | 41 | 352 | 0.9 | 2.6 | 0.00 | 0.00 | 0.00 | 52 | 1012.0 |
| 20260507123109 | 41 | 352 | 1.7 | 2.6 | 0.00 | 0.00 | 0.00 | 53 | 1012.0 |
| 20260507122516 | 41 | 352 | 1.7 | 2.6 | 0.00 | 0.00 | 0.00 | 53 | 1011.8 |
| 20260507122020 | 41 | 352 | 0.9 | 1.7 | 0.00 | 0.00 | 0.00 | 53 | 1012.0 |
| 20260507121624 | 42 | 352 | 0.9 | 2.6 | 0.00 | 0.00 | 0.00 | 51 | 1011.6 |
| 20260507121010 | 42 | 352 | 1.7 | 4.3 | 0.00 | 0.00 | 0.00 | 50 | 1011.6 |
| 20260507120519 | 42 | 352 | 1.7 | 4.3 | 0.00 | 0.00 | 0.00 | 50 | 1011.9 |
| 20260507120104 | 43 | 352 | 2.6 | 4.3 | 0.00 | 0.00 | 0.00 | 49 | 1011.9 |
| 20260507115522 | 43 | 352 | 0.9 | 2.6 | 0.00 | 0.00 | 0.00 | 47 | 1011.3 |
| 20260507115019 | 43 | 352 | 0.9 | 3.5 | 0.00 | 0.00 | 0.00 | 47 | 1011.4 |
| 20260507114605 | 42 | 352 | 1.7 | 4.3 | 0.00 | 0.00 | 0.00 | 49 | 1011.5 |
| 20260507114015 | 42 | 352 | 2.6 | 4.3 | 0.00 | 0.00 | 0.00 | 50 | 1011.7 |
| 20260507113514 | 42 | 316 | 1.7 | 5.2 | 0.00 | 0.00 | 0.00 | 51 | 1011.2 |
| 20260507113109 | 42 | 298 | 2.6 | 5.2 | 0.00 | 0.00 | 0.00 | 51 | 1011.3 |
| 20260507112508 | 42 | 296 | 3.5 | 4.3 | 0.00 | 0.00 | 0.00 | 49 | 1011.5 |
| 20260507112021 | 42 | 352 | 2.6 | 4.3 | 0.00 | 0.00 | 0.00 | 49 | 1011.4 |
| 20260507111610 | 42 | 5 | 2.6 | 5.2 | 0.00 | 0.00 | 0.00 | 48 | 1011.2 |
| 20260507111010 | 42 | 352 | 2.6 | 5.2 | 0.00 | 0.00 | 0.00 | 48 | 1011.1 |
| 20260507110518 | 42 | 9 | 2.6 | 4.3 | 0.00 | 0.00 | 0.00 | 48 | 1011.2 |
| 20260507110045 | 42 | 15 | 2.6 | 7.0 | 0.00 | 0.00 | 0.00 | 48 | 1011.0 |
| 20260507105514 | 41 | 25 | 3.5 | 7.0 | 0.00 | 0.00 | 0.00 | 48 | 1010.9 |
| 20260507105015 | 41 | 26 | 3.5 | 7.0 | 0.00 | 0.00 | 0.00 | 49 | 1011.1 |
| 20260507104608 | 41 | 26 | 2.6 | 4.3 | 0.00 | 0.00 | 0.00 | 52 | 1010.9 |
| 20260507104010 | 41 | 26 | 2.6 | 4.3 | 0.00 | 0.00 | 0.00 | 52 | 1011.0 |
| 20260507103517 | 41 | 26 | 2.6 | 5.2 | 0.00 | 0.00 | 0.00 | 51 | 1010.8 |
| 20260507103058 | 41 | 351 | 3.5 | 7.8 | 0.00 | 0.00 | 0.00 | 52 | 1010.8 |
| 20260507102519 | 40 | 340 | 3.5 | 7.8 | 0.00 | 0.00 | 0.00 | 53 | 1010.9 |
| 20260507102014 | 41 | 25 | 5.2 | 9.6 | 0.00 | 0.00 | 0.00 | 52 | 1010.9 |
| 20260507101614 | 41 | 5 | 6.1 | 7.8 | 0.00 | 0.00 | 0.00 | 50 | 1010.7 |
| 20260507101021 | 41 | 352 | 4.3 | 7.0 | 0.00 | 0.00 | 0.00 | 53 | 1010.6 |
| 20260507100519 | 40 | 321 | 3.5 | 7.0 | 0.00 | 0.00 | 0.00 | 53 | 1010.3 |
| 20260507100106 | 40 | 285 | 3.5 | 7.0 | 0.00 | 0.00 | 0.00 | 54 | 1010.3 |
| 20260507095519 | 39 | 301 | 4.3 | 8.7 | 0.00 | 0.00 | 0.00 | 56 | 1010.2 |
| 20260507095016 | 39 | 271 | 6.1 | 8.7 | 0.00 | 0.00 | 0.00 | 59 | 1010.2 |
| 20260507094623 | 38 | 261 | 4.3 | 7.0 | 0.00 | 0.00 | 0.00 | 62 | 1010.1 |
| 20260507094018 | 37 | 254 | 2.6 | 5.2 | 0.00 | 0.00 | 0.00 | 63 | 1010.1 |
| 20260507093518 | 37 | 274 | 1.7 | 3.5 | 0.00 | 0.00 | 0.00 | 66 | 1009.9 |
| 20260507093111 | 36 | 274 | 1.7 | 3.5 | 0.00 | 0.00 | 0.00 | 65 | 1010.0 |
| 20260507092517 | 36 | 274 | 2.6 | 3.5 | 0.00 | 0.00 | 0.00 | 65 | 1010.1 |
| 20260507092020 | 35 | 274 | 1.7 | 5.2 | 0.00 | 0.00 | 0.00 | 68 | 1010.2 |
| 20260507091642 | 35 | 269 | 2.6 | 5.2 | 0.00 | 0.00 | 0.00 | 67 | 1010.1 |
| 20260507091018 | 36 | 247 | 0.9 | 4.3 | 0.00 | 0.00 | 0.00 | 67 | 1010.0 |
| 20260507090517 | 36 | 246 | 2.6 | 4.3 | 0.00 | 0.00 | 0.00 | 63 | 1009.9 |
| 20260507090112 | 37 | 342 | 0.9 | 3.5 | 0.00 | 0.00 | 0.00 | 60 | 1009.9 |
| 20260507085517 | 37 | 342 | 1.7 | 3.5 | 0.00 | 0.00 | 0.00 | 63 | 1010.2 |
| 20260507085017 | 38 | 342 | 0.9 | 3.5 | 0.00 | 0.00 | 0.00 | 60 | 1010.2 |
| 20260507084609 | 38 | 236 | 2.6 | 4.3 | 0.00 | 0.00 | 0.00 | 58 | 1009.9 |
| 20260507084016 | 39 | 236 | 2.6 | 4.3 | 0.00 | 0.00 | 0.00 | 56 | 1009.9 |
| 20260507083518 | 40 | 40 | 0.9 | 4.3 | 0.00 | 0.00 | 0.00 | 51 | 1010.1 |
| 20260507083108 | 41 | 40 | 0.9 | 4.3 | 0.00 | 0.00 | 0.00 | 50 | 1009.9 |
| 20260507082509 | 40 | 28 | 2.6 | 3.5 | 0.00 | 0.00 | 0.00 | 51 | 1010.0 |
| 20260507082018 | 40 | 28 | 0.9 | 2.6 | 0.00 | 0.00 | 0.00 | 56 | 1010.1 |
| 20260507081540 | 40 | 28 | 0.9 | 2.6 | 0.00 | 0.00 | 0.00 | 59 | 1010.2 |
| 20260507081019 | 41 | 28 | 1.7 | 2.6 | 0.00 | 0.00 | 0.00 | 55 | 1010.1 |
| 20260507080514 | 43 | 28 | 0.0 | 1.7 | 0.00 | 0.00 | 0.00 | 49 | 1010.2 |
| 20260507080057 | 43 | 28 | 0.0 | 3.5 | 0.00 | 0.00 | 0.00 | 47 | 1010.2 |
| 20260507075518 | 43 | 28 | 0.9 | 5.2 | 0.00 | 0.00 | 0.00 | 48 | 1010.5 |
| 20260507075020 | 44 | 28 | 2.6 | 6.1 | 0.00 | 0.00 | 0.00 | 47 | 1010.5 |
| 20260507074610 | 44 | 40 | 3.5 | 8.7 | 0.00 | 0.00 | 0.00 | 46 | 1010.3 |
| 20260507074019 | 44 | 32 | 3.5 | 9.6 | 0.00 | 0.00 | 0.00 | 47 | 1010.4 |
| 20260507073517 | 44 | 51 | 5.2 | 10.4 | 0.00 | 0.00 | 0.00 | 48 | 1010.3 |
| 20260507073029 | 44 | 43 | 6.1 | 11.3 | 0.00 | 0.00 | 0.00 | 52 | 1010.8 |
| 20260507072519 | 43 | 14 | 7.0 | 11.3 | 0.00 | 0.00 | 0.00 | 55 | 1010.3 |
| 20260507072012 | 44 | 34 | 0.9 | 2.6 | 0.00 | 0.00 | 0.00 | 55 | 1009.9 |
| 20260507071618 | 45 | 105 | 0.0 | 0.0 | 0.00 | 0.00 | 0.00 | 54 | 1009.6 |
| 20260507071020 | 46 | 105 | 0.0 | 1.7 | 0.00 | 0.00 | 0.00 | 54 | 1009.4 |
| 20260507070518 | 46 | 105 | 0.0 | 2.6 | 0.00 | 0.00 | 0.00 | 50 | 1009.6 |
| 20260507070110 | 46 | 105 | 0.9 | 3.5 | 0.00 | 0.00 | 0.00 | 51 | 1009.7 |
| 20260507065519 | 47 | 105 | 2.6 | 3.5 | 0.00 | 0.00 | 0.00 | 50 | 1009.4 |
| 20260507065016 | 47 | 92 | 2.6 | 6.1 | 0.00 | 0.00 | 0.00 | 49 | 1009.8 |
| 20260507064611 | 48 | 97 | 2.6 | 6.1 | 0.00 | 0.00 | 0.00 | 46 | 1009.5 |
| 20260507064016 | 48 | 81 | 2.6 | 7.0 | 0.00 | 0.00 | 0.00 | 48 | 1009.6 |
| 20260507063515 | 49 | 91 | 3.5 | 7.0 | 0.00 | 0.00 | 0.00 | 47 | 1009.6 |
| 20260507063058 | 49 | 70 | 4.3 | 8.7 | 0.00 | 0.00 | 0.00 | 49 | 1009.7 |
| 20260507062515 | 50 | 103 | 5.2 | 8.7 | 0.00 | 0.00 | 0.00 | 48 | 1009.5 |
| 20260507062201 | 50 | 87 | 5.2 | 11.3 | 0.00 | 0.00 | 0.00 | 50 | 1009.6 |
| 20260507061537 | 50 | 71 | 7.0 | 11.3 | 0.00 | 0.00 | 0.00 | 50 | 1009.7 |
| 20260507061012 | 50 | 55 | 7.0 | 10.4 | 0.00 | 0.00 | 0.00 | 53 | 1009.6 |
| 20260507060511 | 50 | 44 | 2.6 | 6.1 | 0.00 | 0.00 | 0.00 | 55 | 1009.8 |
| 20260507060027 | 50 | 352 | 0.9 | 4.3 | 0.00 | 0.00 | 0.00 | 50 | 1009.6 |
| 20260507055513 | 51 | 352 | 2.6 | 4.3 | 0.00 | 0.00 | 0.00 | 50 | 1009.7 |
| 20260507055011 | 51 | 50 | 2.6 | 4.3 | 0.00 | 0.00 | 0.00 | 44 | 1009.6 |
| 20260507054538 | 52 | 63 | 2.6 | 7.0 | 0.00 | 0.00 | 0.00 | 40 | 1009.8 |
| 20260507054013 | 52 | 65 | 3.5 | 8.7 | 0.00 | 0.00 | 0.00 | 38 | 1009.7 |
| 20260507053512 | 52 | 64 | 6.1 | 10.4 | 0.00 | 0.00 | 0.00 | 39 | 1009.8 |
| 20260507053048 | 52 | 60 | 7.0 | 10.4 | 0.00 | 0.00 | 0.00 | 38 | 1009.8 |
| 20260507052513 | 52 | 73 | 3.5 | 9.6 | 0.00 | 0.00 | 0.00 | 40 | 1009.7 |
| 20260507052010 | 53 | 66 | 7.8 | 13.0 | 0.00 | 0.00 | 0.00 | 39 | 1009.7 |
| 20260507051541 | 54 | 53 | 8.7 | 13.9 | 0.00 | 0.00 | 0.00 | 35 | 1009.9 |
| 20260507051010 | 54 | 78 | 9.6 | 12.2 | 0.00 | 0.00 | 0.00 | 31 | 1009.6 |
| 20260507050512 | 55 | 82 | 7.8 | 12.2 | 0.00 | 0.00 | 0.00 | 30 | 1009.6 |
| 20260507050041 | 55 | 88 | 8.7 | 12.2 | 0.00 | 0.00 | 0.00 | 30 | 1009.7 |
| 20260507045506 | 55 | 94 | 6.1 | 12.2 | 0.00 | 0.00 | 0.00 | 30 | 1009.6 |
| 20260507045013 | 55 | 123 | 7.0 | 12.2 | 0.00 | 0.00 | 0.00 | 30 | 1009.9 |
| 20260507044537 | 55 | 57 | 7.0 | 9.6 | 0.00 | 0.00 | 0.00 | 32 | 1009.9 |
| 20260507044012 | 55 | 315 | 0.0 | 7.0 | 0.00 | 0.00 | 0.00 | 32 | 1009.9 |
| 20260507043514 | 55 | 315 | 2.6 | 7.0 | 0.00 | 0.00 | 0.00 | 32 | 1010.1 |
| 20260507043038 | 56 | 303 | 1.7 | 9.6 | 0.00 | 0.00 | 0.00 | 31 | 1009.6 |
| 20260507042511 | 56 | 84 | 3.5 | 11.3 | 0.00 | 0.00 | 0.00 | 29 | 1009.0 |
| 20260507042015 | 57 | 101 | 7.8 | 11.3 | 0.00 | 0.00 | 0.00 | 28 | 1008.6 |
| 20260507041538 | 57 | 113 | 4.3 | 9.6 | 0.00 | 0.00 | 0.00 | 30 | 1008.7 |
| 20260507041010 | 56 | 111 | 2.6 | 12.2 | 0.00 | 0.00 | 0.00 | 30 | 1008.5 |
| 20260507040514 | 56 | 133 | 7.0 | 12.2 | 0.00 | 0.00 | 0.00 | 30 | 1008.5 |
| 20260507040045 | 56 | 113 | 6.1 | 8.7 | 0.00 | 0.00 | 0.00 | 31 | 1008.6 |
| 20260507035512 | 56 | 117 | 6.1 | 9.6 | 0.00 | 0.00 | 0.00 | 32 | 1008.6 |
| 20260507035013 | 56 | 89 | 5.2 | 13.9 | 0.00 | 0.00 | 0.00 | 32 | 1008.7 |
| 20260507034554 | 56 | 72 | 7.8 | 13.9 | 0.00 | 0.00 | 0.00 | 32 | 1008.6 |
| 20260507034013 | 56 | 116 | 7.8 | 11.3 | 0.00 | 0.00 | 0.00 | 35 | 1008.1 |
| 20260507033516 | 55 | 77 | 4.3 | 8.7 | 0.00 | 0.00 | 0.00 | 35 | 1008.0 |
| 20260507033045 | 54 | 107 | 5.2 | 8.7 | 0.00 | 0.00 | 0.00 | 38 | 1008.0 |
| 20260507032514 | 53 | 117 | 7.0 | 8.7 | 0.00 | 0.00 | 0.00 | 40 | 1008.1 |
| 20260507032011 | 52 | 43 | 1.7 | 2.6 | 0.00 | 0.00 | 0.00 | 41 | 1008.6 |
| 20260507031539 | 53 | 276 | 0.9 | 2.6 | 0.00 | 0.00 | 0.00 | 43 | 1008.6 |
| 20260507031013 | 54 | 276 | 1.7 | 2.6 | 0.00 | 0.00 | 0.00 | 39 | 1008.3 |
| 20260507030513 | 55 | 136 | 0.0 | 4.3 | 0.00 | 0.00 | 0.00 | 35 | 1008.2 |
| 20260507030039 | 55 | 136 | 2.6 | 6.1 | 0.00 | 0.00 | 0.00 | 35 | 1007.6 |
| 20260507025512 | 55 | 134 | 2.6 | 6.1 | 0.00 | 0.00 | 0.00 | 35 | 1007.5 |
| 20260507025016 | 55 | 131 | 4.3 | 6.1 | 0.00 | 0.00 | 0.00 | 35 | 1007.4 |
| 20260507024550 | 56 | 136 | 4.3 | 7.0 | 0.00 | 0.00 | 0.00 | 35 | 1007.3 |
| 20260507024013 | 56 | 126 | 4.3 | 6.1 | 0.00 | 0.00 | 0.00 | 35 | 1007.4 |
| 20260507023517 | 55 | 119 | 3.5 | 5.2 | 0.00 | 0.00 | 0.00 | 36 | 1007.6 |
| 20260507023041 | 55 | 132 | 2.6 | 4.3 | 0.00 | 0.00 | 0.00 | 37 | 1007.7 |
| 20260507022513 | 56 | 107 | 0.0 | 1.7 | 0.00 | 0.00 | 0.00 | 38 | 1007.8 |
| 20260507022015 | 57 | 107 | 0.9 | 2.6 | 0.00 | 0.00 | 0.00 | 37 | 1007.6 |
| 20260507021547 | 58 | 107 | 1.7 | 2.6 | 0.00 | 0.00 | 0.00 | 35 | 1007.8 |
| 20260507021014 | 58 | 105 | 1.7 | 2.6 | 0.00 | 0.00 | 0.00 | 35 | 1007.9 |
| 20260507020513 | 59 | 105 | 1.7 | 2.6 | 0.00 | 0.00 | 0.00 | 34 | 1007.9 |
| 20260507020053 | 59 | 105 | 1.7 | 2.6 | 0.00 | 0.00 | 0.00 | 35 | 1007.9 |
| 20260507015514 | 60 | 105 | 1.7 | 3.5 | 0.00 | 0.00 | 0.00 | 35 | 1008.0 |
| 20260507015012 | 61 | 105 | 2.6 | 3.5 | 0.00 | 0.00 | 0.00 | 32 | 1008.0 |
| 20260507014546 | 62 | 92 | 1.7 | 5.2 | 0.00 | 0.00 | 0.00 | 34 | 1007.8 |
| 20260507014014 | 63 | 92 | 2.6 | 5.2 | 0.00 | 0.00 | 0.00 | 31 | 1008.0 |
| 20260507013513 | 64 | 94 | 3.5 | 6.1 | 0.00 | 0.00 | 0.00 | 28 | 1007.8 |
| 20260507013041 | 65 | 86 | 2.6 | 6.1 | 0.00 | 0.00 | 0.00 | 29 | 1007.9 |
| 20260507012512 | 65 | 87 | 2.6 | 6.1 | 0.00 | 0.00 | 0.00 | 27 | 1007.7 |
| 20260507012014 | 66 | 78 | 2.6 | 5.2 | 0.00 | 0.00 | 0.00 | 26 | 1007.7 |
| 20260507011545 | 66 | 90 | 2.6 | 7.8 | 0.00 | 0.00 | 0.00 | 27 | 1007.9 |
| 20260507011011 | 67 | 82 | 4.3 | 7.8 | 0.00 | 0.00 | 0.00 | 24 | 1007.9 |
| 20260507010513 | 67 | 80 | 3.5 | 8.7 | 0.00 | 0.00 | 0.00 | 22 | 1007.9 |
| 20260507010050 | 68 | 82 | 4.3 | 8.7 | 0.00 | 0.00 | 0.00 | 22 | 1008.0 |
| 20260507005515 | 68 | 84 | 6.1 | 8.7 | 0.00 | 0.00 | 0.00 | 24 | 1008.0 |
| 20260507005015 | 69 | 49 | 4.3 | 8.7 | 0.00 | 0.00 | 0.00 | 23 | 1007.9 |
| 20260507004538 | 69 | 90 | 2.6 | 5.2 | 0.00 | 0.00 | 0.00 | 23 | 1008.1 |
| 20260507004014 | 69 | 51 | 3.5 | 5.2 | 0.00 | 0.00 | 0.00 | 24 | 1007.9 |
| 20260507003513 | 69 | 12 | 1.7 | 7.8 | 0.00 | 0.00 | 0.00 | 22 | 1008.0 |
| 20260507003040 | 69 | 24 | 1.7 | 7.8 | 0.00 | 0.00 | 0.00 | 22 | 1008.1 |
| 20260507002509 | 68 | 56 | 0.0 | 7.8 | 0.00 | 0.00 | 0.00 | 21 | 1008.3 |
| 20260507002014 | 68 | 27 | 5.2 | 7.8 | 0.00 | 0.00 | 0.00 | 23 | 1008.2 |
| 20260507001546 | 68 | 26 | 3.5 | 8.7 | 0.00 | 0.00 | 0.00 | 23 | 1008.2 |
| 20260507001013 | 68 | 348 | 5.2 | 9.6 | 0.00 | 0.00 | 0.00 | 22 | 1008.2 |
| 20260507000515 | 68 | 352 | 4.3 | 10.4 | 0.00 | 0.00 | 0.00 | 23 | 1008.3 |
| 20260507000037 | 68 | 22 | 4.3 | 10.4 | 0.00 | 0.00 | 0.00 | 22 | 1008.3 |
| 20260506235515 | 69 | 351 | 6.1 | 9.6 | 0.00 | 0.00 | 0.00 | 22 | 1008.3 |
| 20260506235014 | 68 | 15 | 7.0 | 10.4 | 0.00 | 0.00 | 0.00 | 23 | 1008.3 |